Theta_e
320 317 317 316 315 316 317 317 316 316 317 317 317 317 317 319 320 319 322 322 323 321 321 320 319 319 318 318 320 326 348 350 348 346 342 343 337 345 344 345 347 347 345 345
321 320 318 318 317 317 317 316 316 316 318 318 318 319 319 319 319 322 323 323 324 322 322 322 321 319 318 318 323 337 348 350 346 344 339 335 339 344 343 344 345 343 343 342
320 322 320 319 318 318 317 317 316 316 317 320 319 319 320 321 322 322 323 323 322 323 324 323 321 319 318 329 336 345 350 349 347 347 342 343 342 340 341 341 341 337 334 331
320 321 322 321 319 318 318 318 317 317 317 319 319 317 320 320 321 322 322 322 324 325 325 322 321 320 320 332 348 349 348 348 347 347 346 344 344 342 340 339 337 335 333 331
321 321 321 320 319 319 318 318 318 317 316 320 319 317 318 320 321 321 320 323 325 326 328 336 341 348 347 346 344 345 347 348 346 344 345 344 343 340 337 336 334 333 331 328
321 321 320 319 320 319 318 318 317 316 315 317 318 319 318 319 322 322 322 325 325 327 328 329 330 329 331 333 334 341 341 337 337 339 335 336 333 329 328 329 330 330 329 330
323 322 320 321 321 318 318 314 315 320 317 318 318 319 318 319 323 323 325 325 325 329 330 329 329 329 329 329 342 341 335 334 333 335 339 338 334 329 329 329 330 331 331 333
325 323 321 321 320 318 315 315 317 321 321 320 321 320 319 320 324 325 325 325 327 327 330 330 331 330 329 331 334 342 340 337 338 339 339 337 336 332 330 333 347 341 337 336
323 325 323 321 321 320 317 317 317 321 323 324 321 321 323 322 324 323 323 326 327 327 331 331 333 335 335 335 338 341 338 337 338 337 335 339 341 340 339 341 340 338 340 340
321 323 323 322 321 321 319 319 319 320 326 324 322 326 330 328 327 323 326 325 327 328 329 334 336 336 335 333 336 336 337 340 341 342 344 343 342 344 345 343 339 339 337 338
320 324 325 325 321 319 319 320 319 319 319 323 327 331 327 328 328 327 324 324 324 325 330 331 333 333 333 332 332 333 333 333 334 335 337 337 338 340 339 336 329 327 327 324
318 322 324 324 323 323 325 319 321 321 325 324 327 327 327 326 326 326 325 324 324 326 326 328 329 329 330 330 330 329 331 332 332 333 333 335 335 334 334 334 334 334 333 332
319 323 326 326 324 324 324 321 322 322 326 328 330 328 327 326 324 324 325 325 324 324 326 325 325 326 326 325 324 325 325 324 321 321 328 332 333 333 332 332 333 331 330 330
323 325 326 326 328 326 327 327 326 323 324 327 328 329 328 325 322 320 321 323 321 323 325 326 325 324 324 323 322 322 321 321 321 322 321 319 319 320 321 325 323 321 321 323
324 327 326 325 323 324 325 325 326 328 327 326 326 327 328 324 320 319 319 319 321 319 321 325 325 324 321 321 319 320 320 319 319 319 317 316 316 316 317 317 316 315 315 315
322 323 323 325 326 323 322 323 324 326 327 326 323 327 324 323 321 320 320 320 320 321 321 320 320 319 319 318 318 317 317 316 315 315 315 314 314 313 313 312 312 312 312 312
323 323 323 326 325 324 324 320 321 324 326 326 326 321 323 322 321 319 319 318 318 317 317 317 317 317 316 316 315 315 314 314 314 314 313 313 313 312 312 312 312 312 311 311
318 318 319 321 325 321 320 318 318 322 324 324 324 321 323 320 317 318 317 317 317 316 316 316 316 315 315 314 314 314 314 313 313 313 312 312 312 311 311 311 311 310 310 309
316 320 318 318 318 320 322 321 322 323 322 321 320 319 318 317 317 316 317 317 316 316 316 315 314 314 314 314 313 313 313 312 312 312 311 310 310 310 309 308 308 307 307 306
316 316 317 317 318 321 322 320 318 321 323 319 320 318 318 318 316 316 316 315 315 315 314 314 314 314 313 313 312 312 311 311 310 309 308 308 308 307 307 306 306 307 307 308
317 317 317 318 318 321 320 319 317 319 322 318 317 317 317 316 316 317 316 316 315 314 314 313 313 311 312 311 309 309 308 306 306 306 306 306 306 305 305 305 306 306 306 306
317 315 314 316 317 320 320 320 322 319 317 316 315 315 315 315 316 315 315 314 313 312 310 309 309 308 307 306 306 306 305 305 305 305 305 305 305 304 304 304 303 302 302 303
315 317 316 317 317 319 319 319 317 316 315 314 314 314 313 313 313 312 311 310 309 308 307 307 306 306 305 305 304 304 304 304 304 304 304 304 304 303 302 300 301 303 303 302
318 317 316 318 319 319 318 316 316 316 314 314 313 312 311 310 309 308 308 307 306 305 305 304 305 305 304 303 303 302 301 302 302 302 302 302 302 301 299 301 301 301 300 300
315 316 316 317 317 315 314 313 313 312 311 310 309 308 307 306 305 305 305 305 305 304 303 302 302 302 301 300 299 300 299 300 299 299 299 298 298 298 300 300 299 299 299 299
315 316 315 316 316 316 313 311 310 308 307 306 304 303 304 304 304 304 304 303 303 302 301 300 300 299 298 297 297 297 296 296 296 295 296 296 297 298 298 298 299 299 299 300
Wind_Speed
22 8 18 16 14 7 11 15 13 16 21 17 19 20 12 16 20 17 21 24 27 27 26 28 31 31 31 25 31 32 32 37 44 38 36 37 33 25 27 27 23 21 23 22
14 24 13 11 12 16 18 20 19 16 15 11 7 6 8 12 10 19 18 20 11 23 26 24 29 30 30 29 25 24 30 36 26 38 39 27 44 37 32 32 26 20 17 20
21 7 16 18 19 20 21 21 15 13 17 4 7 4 7 5 10 23 16 11 4 7 14 25 19 27 30 19 19 24 26 25 26 31 32 33 33 31 38 30 27 26 34 33
18 16 20 23 23 21 19 21 19 20 15 5 6 5 5 6 11 7 14 12 10 17 9 16 16 23 22 21 22 26 27 24 21 22 33 34 34 41 38 40 36 34 34 27
17 17 24 21 24 21 18 16 17 20 8 3 9 3 5 7 11 13 9 16 20 23 21 14 15 16 16 15 15 19 20 24 26 31 32 30 32 33 35 34 30 23 28 26
15 16 18 19 20 24 19 15 16 9 3 5 7 4 5 5 8 10 8 23 23 27 25 25 21 19 9 9 9 15 18 19 22 29 29 28 23 23 23 24 26 25 23 26
11 15 10 15 16 11 16 8 4 3 7 8 9 6 8 10 7 8 14 23 21 30 25 17 14 15 12 12 10 20 18 19 24 28 30 29 26 28 24 25 25 23 30 32
10 6 19 12 13 8 9 7 4 6 4 3 7 15 12 19 5 21 29 30 30 28 26 24 18 12 6 8 14 4 13 15 21 24 28 30 26 27 27 21 19 21 25 27
2 6 6 17 17 14 7 10 7 2 6 4 4 6 6 16 12 15 22 30 30 24 23 18 14 12 10 6 8 11 4 4 19 16 16 18 21 22 25 23 23 21 21 26
2 7 15 15 18 20 8 6 11 3 1 6 6 2 7 12 12 8 14 19 28 26 22 23 20 18 16 14 14 13 12 12 6 5 14 16 16 17 19 20 20 22 24 28
2 4 8 6 17 12 10 15 6 6 7 5 1 2 5 9 6 8 10 19 22 17 27 24 24 21 19 17 13 15 18 17 14 11 7 4 7 1 4 4 7 11 16 22
18 5 3 5 15 14 13 6 7 5 3 2 5 3 3 9 11 12 13 26 23 20 16 20 21 19 17 15 13 15 16 15 14 12 10 8 7 12 12 10 7 9 10 3
11 5 1 7 7 6 6 3 1 5 4 6 4 3 6 7 8 17 15 20 22 23 14 20 19 19 19 15 12 12 12 13 11 10 7 5 4 3 4 4 3 2 2 2
8 4 5 5 2 3 5 2 5 0 4 4 6 5 5 9 9 10 19 22 24 21 7 14 22 23 25 23 21 16 13 12 9 7 7 6 6 4 3 4 4 5 4 4
4 6 9 8 0 4 3 4 3 4 2 3 6 9 5 6 7 11 22 16 9 14 12 19 26 24 23 22 19 13 8 5 4 3 9 12 10 10 11 12 11 9 9 10
4 2 4 3 4 8 2 5 16 8 3 2 6 2 7 13 14 8 9 12 31 25 24 23 21 18 15 14 12 10 7 8 8 6 6 9 11 14 15 13 13 14 14 16
4 5 5 5 10 10 3 9 9 6 7 9 4 10 12 7 10 6 21 29 29 26 25 21 20 16 13 11 10 9 9 8 6 5 7 10 11 11 13 14 16 19 22 23
2 1 2 6 13 4 4 6 4 10 11 13 13 9 16 14 21 28 24 25 22 20 17 13 11 8 7 7 7 7 8 9 9 8 10 12 14 15 19 21 24 26 27 28
5 3 3 4 2 7 9 7 4 10 15 14 13 14 20 28 31 19 17 15 13 11 8 8 8 6 5 5 7 9 9 9 11 13 14 16 19 21 24 26 27 28 30 30
5 4 4 2 2 2 5 5 11 3 7 7 10 9 7 8 6 3 14 14 10 4 2 2 3 6 8 11 11 8 8 11 14 16 18 21 23 24 25 26 27 25 25 26
3 4 3 3 3 4 2 6 10 5 3 14 22 20 20 8 10 12 8 4 2 4 4 5 7 7 8 5 9 12 13 14 16 19 22 24 25 25 26 26 26 29 32 35
3 4 1 2 3 3 8 9 5 7 16 19 18 17 16 15 12 7 5 5 3 3 3 5 4 5 7 9 11 12 12 13 16 17 19 22 24 26 30 33 36 38 36 31
3 3 4 4 3 7 20 21 22 21 20 16 14 10 10 9 8 6 7 6 7 7 5 5 4 3 6 8 10 13 14 18 21 24 25 26 29 31 34 40 35 29 27 24
5 3 3 5 6 9 20 19 19 16 16 14 11 7 8 9 9 9 7 8 7 5 7 9 10 11 13 16 18 19 22 25 25 26 27 30 34 38 38 28 24 22 22 20
3 1 3 6 11 17 14 15 16 16 11 13 12 12 11 10 9 7 10 8 6 7 10 13 15 18 22 25 28 28 29 31 32 33 34 36 34 27 24 20 19 16 13 13
7 4 2 3 11 15 7 10 13 17 16 15 13 11 10 8 10 9 7 10 10 12 14 17 20 23 22 24 25 27 28 30 32 31 26 21 19 17 17 17 16 11 12 11
Wind_Direction
228 218 223 217 227 235 258 245 235 231 239 235 231 231 199 222 243 261 255 248 227 222 230 240 237 244 242 228 239 237 214 195 189 196 195 200 244 228 224 221 217 213 220 219
221 227 221 234 229 233 244 250 257 278 268 209 179 205 201 210 221 233 243 254 247 219 230 235 235 231 234 223 233 215 201 198 216 205 203 204 200 214 234 227 225 234 249 259
218 227 216 236 227 225 232 243 254 254 280 230 143 227 211 252 249 242 241 217 225 313 253 230 226 221 221 199 205 203 204 199 211 218 205 193 200 208 217 224 224 248 263 279
219 228 224 220 236 228 230 229 247 259 269 229 146 239 245 245 250 233 231 183 111 63 32 205 212 202 210 199 204 207 214 214 215 220 203 209 207 216 219 220 242 250 249 236
226 204 232 220 225 238 242 243 235 246 265 288 279 105 251 232 240 228 216 159 108 91 77 111 141 150 169 188 205 223 225 227 226 222 224 223 216 231 238 242 247 244 246 238
238 237 235 236 234 218 243 241 245 223 220 281 239 152 271 246 259 171 168 134 115 108 109 94 85 73 75 207 224 213 231 225 218 219 226 225 224 232 233 235 230 234 243 252
272 250 248 261 279 230 230 217 224 191 207 229 198 256 227 257 268 175 133 124 113 108 107 106 96 73 53 46 224 238 233 235 242 235 229 224 227 238 242 244 239 236 249 250
206 215 213 234 229 239 219 173 169 188 194 222 243 223 232 249 89 123 125 117 108 93 99 97 93 98 107 65 74 158 238 245 251 251 240 237 241 245 250 251 274 263 255 260
181 269 285 225 240 237 217 234 211 121 96 4 242 291 268 233 127 119 118 112 110 107 91 93 92 87 81 85 75 51 88 258 247 251 261 259 263 261 264 265 252 257 255 254
140 273 254 236 211 245 215 181 222 124 59 180 263 355 29 13 21 132 113 115 116 116 108 108 104 101 97 80 82 63 59 70 155 172 225 236 259 261 262 266 266 262 254 256
134 134 296 317 215 203 186 213 193 166 176 199 206 127 317 341 3 48 71 71 74 68 131 121 117 109 100 95 86 77 67 64 55 51 24 60 69 342 296 273 266 284 291 287
217 166 249 277 313 322 304 185 161 123 223 155 150 221 332 27 15 62 54 76 72 79 81 127 122 117 113 106 104 93 83 77 64 66 67 55 65 77 74 76 62 65 36 88
177 178 177 319 355 321 276 201 314 132 114 181 103 259 113 40 29 41 45 63 76 76 315 125 126 123 121 116 116 114 105 89 65 42 45 46 41 48 62 101 102 84 40 25
325 146 174 210 172 263 202 69 32 116 123 151 160 183 170 109 89 79 82 66 50 55 0 282 132 117 117 116 116 122 114 97 85 50 22 31 20 5 308 308 302 303 296 268
340 151 144 178 149 301 75 86 14 318 20 133 164 165 159 139 114 115 103 99 129 74 316 101 98 96 97 100 95 101 114 110 105 62 6 356 338 327 325 323 318 310 306 297
243 110 111 93 190 231 219 218 171 229 138 83 329 207 178 170 135 213 173 147 87 84 92 89 85 83 83 78 79 69 50 18 9 12 15 351 347 351 349 342 325 309 301 299
125 164 189 152 155 199 278 215 191 183 163 103 257 278 192 163 162 150 91 86 88 87 85 84 83 80 67 44 20 11 358 336 345 352 349 338 329 315 303 299 298 300 302 301
249 26 79 107 168 182 135 67 169 184 164 153 163 186 159 139 101 84 83 89 88 85 84 79 83 78 73 55 16 360 341 336 335 329 327 320 305 295 291 292 295 295 297 300
59 350 44 106 158 134 38 20 35 97 33 75 96 89 100 101 88 69 81 85 83 84 87 84 88 62 20 3 338 317 315 325 312 309 312 306 302 299 298 299 302 304 301 299
71 18 101 58 79 95 184 30 8 74 68 17 82 89 97 137 104 150 111 101 92 69 41 335 316 295 306 317 305 300 309 308 311 304 299 297 298 300 301 300 298 298 297 297
69 25 69 39 91 71 89 36 341 75 160 69 66 73 75 80 126 125 131 117 190 212 240 254 284 315 310 292 291 299 304 311 314 306 301 297 291 292 293 295 294 295 297 298
128 116 195 18 85 122 338 30 65 129 94 85 68 57 82 94 123 109 102 100 78 79 58 24 9 2 349 331 316 311 311 301 294 297 293 291 291 294 298 301 301 299 300 303
111 153 161 138 165 98 88 107 124 112 111 102 90 69 60 54 52 45 30 26 26 10 341 324 323 329 350 345 333 315 305 293 288 286 287 288 292 297 301 307 305 306 306 307
70 63 108 83 39 93 109 113 112 115 105 102 97 71 54 38 19 11 6 359 351 339 322 304 301 308 307 310 311 304 297 290 290 290 289 291 295 300 304 303 306 307 310 312
182 95 151 91 119 82 92 115 114 104 89 83 74 60 44 30 14 2 12 359 323 302 298 305 308 306 304 300 294 289 288 290 295 296 297 298 300 300 302 307 313 313 312 312
34 26 38 102 120 112 82 72 97 91 80 67 54 43 40 37 38 16 345 345 323 312 304 301 301 300 296 288 285 288 293 297 299 299 302 306 308 311 316 319 323 324 323 324